Погода в Саме

Погода в Саме : погода сейчас, прогноз погоды и архив. Всё, что Вы хотите узнать о погоде в Саме!

Поиск расширенной информации на нашем сайте:

Другие новости

Новости СМИ2

Главная страница сайта

Новости сайта

03.07.2017

Напоминаем, что на нашем специализированном сайте Метеоцентр.Азия вы можете получить высокодетализированные автоматические прогнозы погоды по пунктам России, СНГ и мира в авиационном формате (включающие направление и скорость ветра, видимость, явления погоды, количество и форму облачности, нижнюю и верхнюю границу облачности).


Погода в Саме - сегодня

Время (UTC), дата Ветер
(°,м/с) 
Видим.   Явления Облачность Т
(°С)
Тd
(°С)
f(%) Тe
(°С)
Pmin
(гПа)
dP
(гПа)
Po
(мм)
O2
(г/м3)
Тmin Tmax R s Состояние
почвы
12 17.07.18 360 (С) 20000 м    8/4 600 м кучево-дожд., средняя, верхняя 
[Cb calv|Ac cast|Ci fib]
+35.1 +14.2 29 +43  1001.9  0.8  744  263           
15 17.07.18 340 (С) 20000 м    8/3 600 м кучево-дожд., верхняя 
[Cb calv|Ci fib]
+33.4 +16.4 36 +45  1002  745  263    +40.1       
18 17.07.18 340 (С) н/о  зарница  8/3 600 м кучево-дожд., средняя, верхняя 
[Cb cap|Ac cast|Ci fib]
+30.6 +16.3 42 +42  1002.5  0.4  745  266    +40.1       
21 17.07.18 360 (С) н/о  зарница  6/3 600 м кучево-дожд., средняя, верхняя 
[Cb cap|Ac cast|Ci fib]
+27.2 +18.3 58 +42  1002.9  0.3  745  268           
00 18.07.18 340 (С) н/о    9/9 600 м кучево-дожд. 
[Cb cap]
+25.4 +17.7 62 +39  1003.1  0.2  745  271           
03 18.07.18 110 (В) 20000 м  в посл. час ливневой дождь  10/10 600 м кучево-дожд. 
[Cb cap]
+22.6 +20.4 87 +42  1007.1  3.7  748  273      11     
06 18.07.18 110 (В) 20000 м  {ливн. осадки}  8/0 средняя 
[Ac cuf]
+26.3 +17.1 57 +39  1006.4  -0.5  748  270  +22.4    11     
09 18.07.18 тихо ()   20000 м    3/3 1000 м 
[Cu med, cong]
+29.3 +19.7 56 +48  1005.7    747  266           
12 18.07.18 260 (З) 20000 м    3/3 1000 м 
[Cu med, cong]
+32.4 +16.2 38 +43  1005.6  -0.4  747  266           
15 18.07.18 070 (В) 20000 м    ясно 
+32.1 +15.1 36 +41  1005.3  747  266    +32.6       
18 18.07.18 тихо ()   н/о    ясно 
+28.3 +17 50 +41  1006.3  0.8  748  269    +32.6       
21 18.07.18 тихо ()   н/о    ясно 
+25.6 +20 71 +45  1005.9  -0.4  747  270           
00 19.07.18 050 (СВ) н/о    ясно 
+23.8 +17.4 67 +37  1006.5  0.5  747  273           
03 19.07.18 090 (В) 20000 м    ясно 
+25.3 +17.5 62 +39  1006.6  0.2  748  271           
06 19.07.18 090 (В) 20000 м    3/0 верхняя 
[Ci fib]
+32.9 +15.6 35 +43  1006.5  0.9  748  265  +22.8         
09 19.07.18 090 (В) 20000 м    ясно 
+37.1 +11.5 21 +40  1005.9  -0.5  748  263           
12 19.07.18 090 (В) 20000 м    5/0 средняя 
[Ac cuf]
+38 +12.1 21 +42  1003.7  -2  746  262           
15 19.07.18 070 (В) 20000 м    8/0 средняя 
[Ac cuf]
+37.1 +7.6 17 +37  1002.9  -0.8  745  262    +39.4       
18 19.07.18 070 (В) н/о    ясно 
+32.5 +9.5 24 +33  1002.3  -0.8  745  266    +39.4       
21 19.07.18 090 (В) н/о  зарница  5/5 600 м кучево-дожд. 
[Cb cap]
+30.4 +11 30 +33  1001.4  -1  744  267           
00 20.07.18 090 (В) н/о  зарница{ливн. осадки}  9/9 600 м кучево-дожд. 
[Cb cap]
+28.6 +10.5 32 +31  1001.8  0.3  744  269           
03 20.07.18 090 (В) 20000 м  {ливн. осадки}  ясно 
+26.8 +15.5 50 +37  1001.9  0.1  744  269      0.0     
06 20.07.18 110 (В) 20000 м    ясно 
+34.2 +12.8 27 +40  1000.7  -1  744  263  +24.5    0.0     
09 20.07.18 110 (В) 20000 м    ясно 
+40.6 +11.1 17 +44  997.8  -2.7  742  258           
12 20.07.18 250 (З) 20000 м    1/0 верхняя 
[Ci sp]
+42.5 +11.9 17 +47  997  -0.7  741  256           
Время (UTC), дата Ветер
(°,м/с) 
Видим.   Явления Облачность Т
(°С)
Тd
(°С)
f(%) Тe
(°С)
Pmin
(гПа)
dP
(гПа)
Po
(мм)
O2
(г/м3)
Тmin Tmax R s Состояние
почвы

Для получения пояснительной информации подведите курсор к названию столбца.

ПОГОДА в Саме - архив

Всё, что Вы хотите узнать о погоде в Саме - удобно и подробно!

Выберите нужную дату (начиная с 1 января 2015* года) и нажмите кнопку "Найти".
Будут отображены архивные сводки погоды по пункту Сам, начиная с указанной даты.


Отображать данные в формате CSV (для использования в таблицах Excel)


Внимание! Наш архив погоды предназначен исключительно для личного некоммерческого использования в познавательных целях. Если Вам необходимы официальные справки о состоянии погоды (для производственных, юридических, коммерческих и т.п. целей), обращайтесь в органы Росгидромета.

*Примечание: данная дата относится к архиву по метеостанциям СССР (Россия, СНГ, Балтия).
Архив по метеостанциям Зарубежной Европы и Азии (кроме Китая) хранится 10 дней, по другим регионам земного шара (Китай, Африка, Америка, Австралия, Океания) - 1 день.

Сам - район местоположения метеостанции


Название, широта, долгота, высота метеостанции:
Сам 45.4°ш. 56.1°д. 82 м над ур. моря [Казахстан]

Дополнительная информация

В oтличие oт бoльшинства пoгoдных сайтoв мы публикуем пoдрoбную метеoинфoрмацию в детальнoм прoфессиoнальнoм фoрмате.

Характеристики температуры и влажнoсти вoздуха измеряются на высoте 2 м в тени вдали oт зданий и деревьев.
Скoрoсть ветра измеряется на высoте 10 м (на урoвне рoста челoвека скoрoсть ветра ниже в 1.5-2 раза). Если метеoстанция нахoдится в гoрoде или в лесу, тo скoрoсть ветра занижена на 2-4 м/с пo сравнению с oткрытым местoм. Скoрoсть ветра над акватoриями крупных рек и oзёр, а также на вершинах хoлмoв на 2-5 м/с выше, чем в oбычных услoвиях.
Атмoсфернoе давление в разных тoчках местнoсти мoжет значительнo oтличаться oт давления на метеoстанции, в зависимoсти oт услoвий рельефа (при пoдъёме на 10 м давление пoнижается примернo на 1 мм рт.ст.).